| time (UTC) | temp C | wind direction | speed KPH | gust KPH | rain 1hr cm | rain 24hr cm | rain mn cm | humidity % | barometer mb |
| 20260510143057 | 7 | 142 | 0.0 | 0.0 | 0.00 | 0.05 | 0.00 | 91 | 1028.8 |
| 20260510141542 | 8 | 142 | 0.0 | 0.0 | 0.00 | 0.05 | 0.00 | 91 | 1028.8 |
| 20260510140038 | 8 | 142 | 0.0 | 0.0 | 0.00 | 0.05 | 0.00 | 91 | 1028.9 |
| 20260510134541 | 8 | 142 | 0.0 | 0.0 | 0.00 | 0.05 | 0.05 | 90 | 1028.8 |
| 20260510133038 | 8 | 142 | 0.0 | 0.0 | 0.00 | 0.05 | 0.05 | 90 | 1028.8 |
| 20260510131537 | 8 | 142 | 0.0 | 0.0 | 0.00 | 0.05 | 0.05 | 90 | 1028.9 |
| 20260510130037 | 8 | 142 | 0.0 | 0.0 | 0.00 | 0.05 | 0.05 | 88 | 1028.8 |
| 20260510124539 | 9 | 142 | 0.0 | 0.0 | 0.00 | 0.05 | 0.05 | 89 | 1029.0 |
| 20260510123036 | 10 | 142 | 0.0 | 0.0 | 0.00 | 0.05 | 0.05 | 89 | 1029.1 |
| 20260510121535 | 10 | 142 | 0.0 | 0.0 | 0.00 | 0.05 | 0.05 | 89 | 1029.0 |
| 20260510120037 | 10 | 142 | 0.0 | 0.0 | 0.00 | 0.05 | 0.05 | 88 | 1028.9 |
| 20260510114543 | 10 | 142 | 0.0 | 0.0 | 0.00 | 0.05 | 0.05 | 86 | 1028.9 |
| 20260510113034 | 10 | 142 | 0.0 | 3.2 | 0.00 | 0.05 | 0.05 | 83 | 1028.9 |
| 20260510111535 | 11 | 142 | 0.0 | 0.0 | 0.00 | 0.05 | 0.05 | 82 | 1028.8 |
| 20260510110038 | 12 | 209 | 0.0 | 0.0 | 0.00 | 0.05 | 0.05 | 81 | 1028.8 |
| 20260510104533 | 12 | 209 | 1.6 | 4.8 | 0.00 | 0.05 | 0.05 | 80 | 1028.8 |
| 20260510103033 | 13 | 194 | 1.6 | 4.8 | 0.00 | 0.05 | 0.05 | 80 | 1028.8 |
| 20260510101534 | 13 | 212 | 0.0 | 1.6 | 0.00 | 0.05 | 0.05 | 79 | 1028.8 |
| 20260510100048 | 13 | 225 | 1.6 | 4.8 | 0.00 | 0.05 | 0.05 | 79 | 1028.9 |
| 20260510094546 | 13 | 225 | 3.2 | 4.8 | 0.00 | 0.05 | 0.05 | 79 | 1028.8 |
| 20260510093031 | 13 | 205 | 1.6 | 4.8 | 0.00 | 0.05 | 0.05 | 78 | 1028.5 |
| 20260510091531 | 14 | 205 | 1.6 | 4.8 | 0.00 | 0.05 | 0.05 | 78 | 1028.4 |
| 20260510090040 | 13 | 205 | 1.6 | 3.2 | 0.00 | 0.05 | 0.05 | 80 | 1028.2 |
| 20260510084529 | 13 | 205 | 0.0 | 0.0 | 0.00 | 0.05 | 0.05 | 78 | 1028.0 |
| 20260510083031 | 15 | 204 | 0.0 | 0.0 | 0.00 | 0.05 | 0.05 | 74 | 1027.8 |
| 20260510081543 | 16 | 205 | 0.0 | 0.0 | 0.00 | 0.05 | 0.05 | 71 | 1027.8 |
| 20260510080031 | 16 | 205 | 0.0 | 0.0 | 0.00 | 0.05 | 0.05 | 70 | 1027.7 |
| 20260510074528 | 17 | 205 | 0.0 | 0.0 | 0.00 | 0.05 | 0.05 | 68 | 1027.6 |
| 20260510073027 | 18 | 205 | 0.0 | 0.0 | 0.00 | 0.05 | 0.05 | 65 | 1027.5 |
| 20260510071529 | 18 | 194 | 0.0 | 6.4 | 0.00 | 0.05 | 0.05 | 62 | 1027.3 |
| 20260510070030 | 19 | 159 | 3.2 | 8.0 | 0.00 | 0.05 | 0.05 | 61 | 1027.2 |
| 20260510064522 | 20 | 198 | 3.2 | 11.3 | 0.00 | 0.05 | 0.05 | 59 | 1027.3 |
| 20260510063019 | 21 | 188 | 1.6 | 8.0 | 0.00 | 0.05 | 0.05 | 56 | 1027.2 |
| 20260510061518 | 21 | 132 | 1.6 | 8.0 | 0.00 | 0.05 | 0.05 | 57 | 1027.2 |
| 20260510060016 | 21 | 119 | 4.8 | 9.7 | 0.00 | 0.05 | 0.05 | 57 | 1027.2 |
| 20260510054516 | 20 | 115 | 4.8 | 12.9 | 0.00 | 0.05 | 0.05 | 59 | 1027.2 |
| 20260510053013 | 20 | 238 | 0.0 | 8.0 | 0.00 | 0.05 | 0.05 | 58 | 1027.1 |
| 20260510051513 | 19 | 288 | 0.0 | 3.2 | 0.00 | 0.05 | 0.05 | 62 | 1027.2 |
| 20260510050111 | 20 | 246 | 1.6 | 4.8 | 0.00 | 0.05 | 0.05 | 58 | 1027.3 |
| 20260510044521 | 21 | 165 | 3.2 | 9.7 | 0.00 | 0.05 | 0.05 | 57 | 1027.2 |
| 20260510043011 | 21 | 227 | 6.4 | 12.9 | 0.00 | 0.05 | 0.05 | 56 | 1027.2 |
| 20260510041512 | 21 | 165 | 1.6 | 9.7 | 0.00 | 0.05 | 0.05 | 57 | 1027.2 |
| 20260510040010 | 20 | 88 | 4.8 | 8.0 | 0.00 | 0.05 | 0.05 | 61 | 1027.3 |
| 20260510034507 | 20 | 130 | 4.8 | 8.0 | 0.00 | 0.05 | 0.05 | 61 | 1027.4 |
| 20260510033007 | 21 | 240 | 3.2 | 9.7 | 0.00 | 0.05 | 0.05 | 59 | 1027.4 |
| 20260510031504 | 21 | 103 | 3.2 | 8.0 | 0.00 | 0.05 | 0.05 | 64 | 1027.6 |
| 20260510030002 | 20 | 290 | 1.6 | 9.7 | 0.00 | 0.05 | 0.05 | 57 | 1027.8 |
| 20260510024502 | 20 | 135 | 0.0 | 4.8 | 0.00 | 0.05 | 0.05 | 59 | 1028.0 |
| 20260510023059 | 20 | 128 | 1.6 | 11.3 | 0.00 | 0.05 | 0.05 | 60 | 1028.2 |
| 20260510021559 | 20 | 172 | 1.6 | 11.3 | 0.00 | 0.05 | 0.05 | 63 | 1028.4 |
| 20260510020053 | 20 | 100 | 1.6 | 9.7 | 0.00 | 0.05 | 0.05 | 64 | 1028.7 |
| 20260510014551 | 20 | 150 | 1.6 | 8.0 | 0.00 | 0.05 | 0.05 | 67 | 1028.9 |
| 20260510013048 | 19 | 72 | 1.6 | 6.4 | 0.00 | 0.05 | 0.05 | 68 | 1029.1 |
| 20260510011546 | 18 | 66 | 3.2 | 9.7 | 0.00 | 0.05 | 0.05 | 69 | 1029.1 |
| 20260510010041 | 18 | 88 | 4.8 | 9.7 | 0.00 | 0.05 | 0.05 | 72 | 1029.2 |
| 20260510004539 | 17 | 65 | 3.2 | 9.7 | 0.00 | 0.05 | 0.05 | 72 | 1029.1 |
| 20260510003033 | 16 | 103 | 4.8 | 11.3 | 0.00 | 0.05 | 0.05 | 79 | 1029.1 |
| 20260510001529 | 15 | 130 | 6.4 | 11.3 | 0.00 | 0.05 | 0.05 | 83 | 1029.1 |
| 20260510000044 | 14 | 107 | 4.8 | 11.3 | 0.00 | 0.05 | 0.05 | 86 | 1029.1 |
| 20260509234520 | 13 | 107 | 6.4 | 11.3 | 0.00 | 0.05 | 0.05 | 90 | 1029.2 |
| 20260509233015 | 12 | 109 | 4.8 | 9.7 | 0.00 | 0.05 | 0.05 | 94 | 1029.2 |
| 20260509231512 | 11 | 123 | 4.8 | 6.4 | 0.00 | 0.05 | 0.05 | 94 | 1029.4 |
| 20260509230006 | 10 | 139 | 4.8 | 11.3 | 0.00 | 0.05 | 0.05 | 94 | 1029.2 |
| 20260509223106 | 8 | 160 | 3.2 | 4.8 | 0.03 | 0.05 | 0.05 | 95 | 1029.1 |
| 20260509221555 | 7 | 183 | 1.6 | 6.4 | 0.03 | 0.05 | 0.05 | 94 | 1028.9 |
| 20260509220050 | 7 | 171 | 1.6 | 6.4 | 0.03 | 0.05 | 0.05 | 94 | 1028.8 |
| 20260509214546 | 7 | 198 | 0.0 | 0.0 | 0.00 | 0.03 | 0.03 | 94 | 1028.6 |
| 20260509213043 | 6 | 198 | 0.0 | 4.8 | 0.00 | 0.03 | 0.03 | 93 | 1028.3 |
| 20260509211543 | 7 | 211 | 1.6 | 4.8 | 0.00 | 0.03 | 0.03 | 94 | 1028.2 |
| 20260509210045 | 6 | 207 | 0.0 | 3.2 | 0.00 | 0.03 | 0.03 | 93 | 1028.1 |
| 20260509204546 | 7 | 211 | 0.0 | 3.2 | 0.00 | 0.03 | 0.03 | 93 | 1028.0 |
| 20260509203036 | 7 | 206 | 1.6 | 6.4 | 0.00 | 0.03 | 0.03 | 93 | 1027.8 |
| 20260509201538 | 7 | 203 | 1.6 | 4.8 | 0.00 | 0.03 | 0.03 | 93 | 1027.7 |
| 20260509200034 | 7 | 218 | 0.0 | 3.2 | 0.00 | 0.03 | 0.03 | 93 | 1027.6 |
| 20260509194534 | 7 | 222 | 0.0 | 0.0 | 0.00 | 0.03 | 0.03 | 93 | 1027.5 |
| 20260509193030 | 7 | 222 | 0.0 | 3.2 | 0.00 | 0.03 | 0.03 | 93 | 1027.3 |
| 20260509191528 | 7 | 219 | 1.6 | 4.8 | 0.00 | 0.03 | 0.03 | 93 | 1027.3 |
| 20260509190024 | 7 | 234 | 3.2 | 4.8 | 0.00 | 0.03 | 0.03 | 93 | 1027.1 |
| 20260509184538 | 7 | 248 | 1.6 | 3.2 | 0.00 | 0.03 | 0.03 | 93 | 1026.9 |
| 20260509183023 | 7 | 252 | 0.0 | 0.0 | 0.00 | 0.03 | 0.03 | 93 | 1026.9 |
| 20260509181522 | 7 | 252 | 0.0 | 1.6 | 0.00 | 0.03 | 0.03 | 93 | 1026.8 |
| 20260509180021 | 7 | 252 | 0.0 | 1.6 | 0.00 | 0.03 | 0.03 | 93 | 1026.8 |
| 20260509174521 | 7 | 257 | 0.0 | 0.0 | 0.00 | 0.03 | 0.03 | 92 | 1026.7 |
| 20260509173019 | 7 | 257 | 0.0 | 0.0 | 0.00 | 0.03 | 0.03 | 92 | 1026.7 |
| 20260509171518 | 7 | 257 | 0.0 | 0.0 | 0.00 | 0.03 | 0.03 | 92 | 1026.9 |
| 20260509170016 | 8 | 257 | 0.0 | 0.0 | 0.00 | 0.03 | 0.03 | 92 | 1026.9 |
| 20260509164513 | 8 | 257 | 0.0 | 3.2 | 0.03 | 0.03 | 0.03 | 93 | 1026.9 |
| 20260509163016 | 8 | 248 | 0.0 | 4.8 | 0.03 | 0.03 | 0.03 | 93 | 1026.8 |
| 20260509161512 | 8 | 252 | 1.6 | 4.8 | 0.03 | 0.03 | 0.03 | 93 | 1026.9 |
| 20260509160011 | 8 | 269 | 1.6 | 4.8 | 0.03 | 0.03 | 0.03 | 93 | 1027.0 |
| 20260509154512 | 8 | 274 | 3.2 | 4.8 | 0.00 | 0.00 | 0.00 | 93 | 1027.0 |
| 20260509153107 | 8 | 277 | 1.6 | 3.2 | 0.00 | 0.00 | 0.00 | 92 | 1027.0 |
| 20260509151506 | 8 | 277 | 1.6 | 4.8 | 0.00 | 0.00 | 0.00 | 92 | 1027.1 |
| 20260509144527 | 8 | 273 | 3.2 | 4.8 | 0.00 | 0.00 | 0.00 | 93 | 1027.2 |